Powrót do katalogu

TANSEI 3 DEB

AktywnyUNKNOWN
NORAD 9982·DEBRIS·🇯🇵 Japan

Wystrzelony Feb 19, 1977 z Uchinoura Space Center

Loading…

Następne Przeloty (najbliższe 24 godziny)

TLE

Starzejące sięSource: Space-Track

Epoka: Aug 18, 2026, 08:42 UTC

1 09982U 77012F   26230.36280631  .00000146  00000-0  46351-3 0  9990
2 09982  65.9040 332.5024 1719236 237.2560 105.1117 10.81081530952994

Śledź TANSEI 3 DEB w czasie rzeczywistym z AllMySat

Download on the App Store